CDT,Max TemperatureF,Mean TemperatureF,Min TemperatureF,Max Dew PointF,MeanDew PointF,Min DewpointF,Max Humidity, Mean Humidity, Min Humidity, Max Sea Level PressureIn, Mean Sea Level PressureIn, Min Sea Level PressureIn, Max VisibilityMiles, Mean VisibilityMiles, Min VisibilityMiles, Max Wind SpeedMPH, Mean Wind SpeedMPH, Max Gust SpeedMPH,PrecipitationIn, CloudCover, Events, WindDirDegrees
2012-10-1,65,63,60,66,61,58,100,92,84,29.75,29.60,29.49,10,6,1,15,6,20,0.14,8,Rain,296
2012-10-2,76,65,54,60,56,54,97,72,46,29.99,29.86,29.75,10,7,0,10,2,14,0.00,2,Fog,315
2012-10-3,81,68,55,62,58,54,100,71,42,30.13,30.06,29.99,10,9,6,15,4,17,0.00,2,,163
2012-10-4,84,73,62,65,62,59,93,70,46,30.25,30.18,30.13,10,9,5,10,1,12,0.00,1,,156
2012-10-5,85,71,57,64,59,53,97,67,37,30.17,30.09,30.00,10,9,5,9,1,12,0.00,0,,193
2012-10-6,68,60,52,64,55,50,93,78,63,30.13,30.07,30.00,10,10,6,16,8,21,0.00,7,,349
2012-10-7,63,56,49,50,45,42,96,74,51,30.21,30.16,30.12,10,10,9,20,9,23,0.00,6,,2
2012-10-8,66,57,47,48,46,45,93,73,52,30.23,30.16,30.12,10,10,10,15,7,22,0.00,5,,8
2012-10-9,73,58,42,53,47,42,93,69,44,30.17,30.10,30.02,10,10,7,9,2,10,0.00,0,,164
2012-10-10,80,69,58,62,58,53,86,70,54,30.20,30.13,30.07,10,10,10,14,4,17,0.00,5,,11
2012-10-11,85,71,56,67,61,54,93,71,48,30.25,30.20,30.16,10,10,9,9,2,12,0.00,1,,136
2012-10-12,85,72,58,67,62,57,100,74,47,30.28,30.21,30.18,10,8,3,7,1,10,0.00,0,,133
2012-10-13,84,71,58,66,61,57,97,72,47,30.23,30.16,30.07,10,7,2,20,8,26,0.00,0,,169
2012-10-14,82,76,69,70,68,66,93,80,67,30.14,30.05,29.96,10,9,5,18,8,24,T,5,,190
2012-10-15,79,67,54,67,56,48,93,64,35,30.06,30.00,29.95,10,9,2,13,4,16,0.00,0,,1
2012-10-16,78,64,49,57,52,48,100,68,36,30.02,29.94,29.84,10,10,2,13,4,15,0.00,0,,138
2012-10-17,82,68,54,68,59,51,86,69,51,29.85,29.76,29.66,10,10,10,23,12,31,T,2,,170
2012-10-18,77,63,49,72,52,31,87,53,19,29.91,29.82,29.68,10,9,1,24,6,39,0.91,3,Rain-Thunderstorm,321
2012-10-19,74,61,47,45,39,31,86,54,22,29.91,29.88,29.82,10,9,6,23,6,29,0.00,0,,237
2012-10-20,80,62,43,52,43,34,89,54,19,30.01,29.95,29.91,10,10,10,8,2,15,0.00,0,,175
2012-10-21,83,67,51,54,50,46,83,56,28,30.10,30.05,29.99,10,10,10,14,5,17,0.00,2,,168
2012-10-22,83,67,50,55,52,48,93,63,33,30.16,30.10,30.04,10,10,10,14,4,17,0.00,0,,150
2012-10-23,81,66,51,63,57,50,100,77,54,30.13,30.07,30.02,10,8,1,14,4,17,0.00,2,,159
2012-10-24,82,71,60,64,61,57,100,73,45,30.12,30.06,29.99,10,7,0,10,4,14,0.00,2,Fog,149
2012-10-25,82,71,60,65,61,58,100,76,51,30.03,29.99,29.93,10,7,0,13,5,17,0.00,1,Fog,149
2012-10-26,71,59,47,61,54,44,93,80,66,30.12,30.03,29.94,10,10,6,20,8,25,T,5,Rain,339
2012-10-27,59,52,45,45,41,37,93,72,51,30.12,30.08,30.01,10,10,8,20,13,30,0.00,7,,345
2012-10-28,62,51,40,38,35,30,85,59,32,30.17,30.10,30.06,10,10,10,20,9,26,0.00,0,,348
2012-10-29,60,50,40,35,31,26,79,53,27,30.23,30.16,30.10,10,10,10,21,10,28,0.00,0,,341
2012-10-30,66,50,34,40,34,30,89,59,29,30.10,30.04,29.97,10,10,10,16,4,21,0.00,0,,304
2012-10-31,76,59,42,55,47,38,89,65,41,30.02,29.98,29.92,10,10,9,12,4,17,0.00,3,,272